Home > Weather > Seeb > Past weeks

Flag for Oman Weather for the Past 2 Weeks in Seeb, Oman

Now
75 °F

Sunny.


Feels Like: 77 °F
Forecast: 73 / 81 °F
Wind: 10 mph from Northeast

Location: International Airport

Current Time: Feb 8, 2016 at 5:19:37 PM

Latest Report: Feb 8, 2016 at 4:50 PM


Visibility: 10 mi

Pressure: 29.98 "Hg

Humidity: 61%

Dew point: 61 °F

Location of SeebLocation

Historic Weather in Seeb — Graph

°F

Seeb Temperature Yesterday

Maximum temperature yesterday: 79 °F (at 11:50 AM)
Minimum temperature yesterday: 57 °F (at 2:50 AM)
Average temperature yesterday: 68 °F

High & Low Weather Summary for the Past Weeks

 TemperatureHumidityPressure
High88 °F (Jan 26, 3:50 PM)88% (Jan 28, 5:50 AM)30.24 "Hg (Jan 28, 5:50 AM)
Low57 °F (Feb 7, 2:50 AM)22% (Feb 7, 10:50 AM)29.86 "Hg (Jan 26, 2:50 PM)
Average71 °F55%30.04 "Hg
* Reported Jan 24 3:50 PM — Feb 8 3:50 PM, Seeb, Weather by CustomWeather, © 2016

Note: Actual official high and low records may vary slightly from our data, if they occured in-between our weather recording intervals... More about our weather records

Advertising

Seeb Weather History for the Previous 24 Hours

 ConditionsComfort  
Time TempWeatherWind HumidityBarometerVisibility
3:50 PM
Mon, Feb 8
77 °FSunny.10 mph54%29.98 "Hg10 mi
2:50 PM77 °FSunny.9 mph44%29.98 "Hg10 mi
1:50 PM77 °FPassing clouds.10 mph47%30.01 "HgN/A
12:50 PM79 °FPassing clouds.9 mph32%30.04 "HgN/A
11:50 AM79 °FSunny.9 mph32%30.04 "Hg10 mi
10:50 AM79 °FPassing clouds.3 mph28%30.07 "HgN/A
9:50 AM77 °FSunny.2 mph34%30.09 "Hg10 mi
8:50 AM73 °FSunny.No wind38%30.07 "Hg10 mi
7:50 AM64 °FSunny.5 mph43%30.04 "Hg10 mi
6:50 AM59 °FSunny.No wind48%30.01 "Hg10 mi
5:50 AM59 °FClear.No wind51%30.01 "Hg10 mi
4:50 AM61 °FClear.No wind48%29.98 "Hg10 mi
3:50 AM59 °FClear.No wind59%29.98 "Hg10 mi
2:50 AM61 °FClear.5 mph55%29.98 "Hg10 mi
1:50 AM63 °FClear.3 mph56%29.98 "Hg10 mi
12:50 AM64 °FClear.5 mph56%30.01 "HgN/A
11:50 PM
Sun, Feb 7
64 °FPassing clouds.5 mph56%30.01 "HgN/A
10:50 PM64 °FClear.3 mph56%30.01 "Hg10 mi
9:50 PM70 °FClear.3 mph53%30.01 "Hg10 mi
8:50 PM72 °FClear.2 mph50%30.01 "Hg10 mi
7:50 PM70 °FClear.8 mph57%30.01 "Hg10 mi
6:50 PM72 °FClear.9 mph57%30.01 "Hg10 mi
5:50 PM73 °FSunny.10 mph50%30.01 "Hg10 mi
Weather by CustomWeather, © 2016

See weather overviewHow to use our weather pages